FFT4963 KDFW-KLAX

Flight info

Callsign FFT4963
Flight time 2h 56m
Altitude 28000
Route KATZZ2 BRHMA CNX ONM SJN DRK J231 HIPPI GABBL HLYWD1
Aircraft A321/M-SDE3FGHIRWY/LB1

Departure

Time 2026-05-05 17:41
Airport Dallas Fort Worth International Airport (KDFW)

Arrival

Time 2026-05-05 20:37
Airport Los Angeles International Airport (KLAX)
Time Latitude Longitude Altitude Speed Heading
2026-05-05 17:20 32.88904 -97.03527 630 ft 0 kts 304°
2026-05-05 17:30 32.88894 -97.03509 631 ft 3 kts 306°
2026-05-05 17:30 32.88886 -97.03496 625 ft 2 kts 336°
2026-05-05 17:30 32.88875 -97.03494 620 ft 2 kts 24°
2026-05-05 17:31 32.88865 -97.03499 619 ft 2 kts 25°
2026-05-05 17:31 32.88863 -97.03500 619 ft 0 kts 25°
2026-05-05 17:33 32.88871 -97.03496 619 ft 3 kts 25°
2026-05-05 17:33 32.88893 -97.03484 623 ft 5 kts 24°
2026-05-05 17:33 32.88946 -97.03456 619 ft 11 kts 24°
2026-05-05 17:34 32.89012 -97.03432 615 ft 9 kts 17°
2026-05-05 17:34 32.89037 -97.03373 615 ft 9 kts 89°
2026-05-05 17:34 32.89037 -97.03277 615 ft 13 kts 90°
2026-05-05 17:34 32.89054 -97.03202 618 ft 8 kts 30°
2026-05-05 17:35 32.89115 -97.03197 622 ft 11 kts
2026-05-05 17:35 32.89214 -97.03198 621 ft 18 kts 360°
2026-05-05 17:35 32.89362 -97.03197 620 ft 24 kts
2026-05-05 17:35 32.89520 -97.03195 619 ft 22 kts
2026-05-05 17:36 32.89663 -97.03195 623 ft 19 kts
2026-05-05 17:36 32.89791 -97.03194 622 ft 17 kts
2026-05-05 17:36 32.89902 -97.03194 619 ft 15 kts 360°
2026-05-05 17:36 32.90001 -97.03193 621 ft 14 kts
2026-05-05 17:37 32.90125 -97.03192 623 ft 21 kts 360°
2026-05-05 17:37 32.90233 -97.03191 626 ft 25 kts
2026-05-05 17:37 32.90479 -97.03189 622 ft 26 kts 360°
2026-05-05 17:37 32.90657 -97.03190 623 ft 26 kts 360°
2026-05-05 17:38 32.90846 -97.03187 620 ft 28 kts
2026-05-05 17:38 32.91039 -97.03186 622 ft 27 kts
2026-05-05 17:38 32.91219 -97.03186 620 ft 25 kts 360°
2026-05-05 17:38 32.91383 -97.03185 621 ft 23 kts
2026-05-05 17:39 32.91521 -97.03183 622 ft 14 kts
2026-05-05 17:39 32.91565 -97.03108 616 ft 11 kts 92°
2026-05-05 17:39 32.91561 -97.03020 620 ft 10 kts 105°
2026-05-05 17:39 32.91509 -97.02990 625 ft 8 kts 180°
2026-05-05 17:40 32.91433 -97.02990 622 ft 23 kts 180°
2026-05-05 17:40 32.91041 -97.02992 622 ft 87 kts 180°
2026-05-05 17:40 32.90271 -97.02997 616 ft 135 kts 180°
2026-05-05 17:40 32.89195 -97.02999 629 ft 171 kts 180°
2026-05-05 17:41 32.87998 -97.03000 1172 ft 170 kts 183°
2026-05-05 17:41 32.86807 -97.03101 1712 ft 173 kts 189°
2026-05-05 17:41 32.85607 -97.03282 2287 ft 176 kts 191°
2026-05-05 17:41 32.84318 -97.03487 2406 ft 197 kts 192°
2026-05-05 17:42 32.82900 -97.03713 2537 ft 215 kts 192°
2026-05-05 17:42 32.81331 -97.03955 2667 ft 238 kts 191°
2026-05-05 17:42 32.79668 -97.04204 3214 ft 243 kts 192°
2026-05-05 17:42 32.77972 -97.04436 3792 ft 248 kts 192°
2026-05-05 17:43 32.76237 -97.04671 4319 ft 254 kts 192°
2026-05-05 17:43 32.74467 -97.04919 4847 ft 258 kts 192°
2026-05-05 17:43 32.72741 -97.05320 5403 ft 253 kts 207°
2026-05-05 17:43 32.71281 -97.06427 5981 ft 248 kts 228°
2026-05-05 17:44 32.70287 -97.08102 6354 ft 255 kts 249°
2026-05-05 17:44 32.69822 -97.10159 6769 ft 260 kts 257°
2026-05-05 17:44 32.69429 -97.12267 7313 ft 263 kts 258°
2026-05-05 17:44 32.69195 -97.14406 7950 ft 262 kts 269°
2026-05-05 17:45 32.69308 -97.16567 8565 ft 263 kts 272°
2026-05-05 17:45 32.69433 -97.18734 9164 ft 264 kts 272°
2026-05-05 17:45 32.69552 -97.20913 9776 ft 264 kts 272°
2026-05-05 17:45 32.69674 -97.23100 10277 ft 269 kts 272°
2026-05-05 17:46 32.69817 -97.25397 10383 ft 288 kts 275°
2026-05-05 17:46 32.70186 -97.27813 10495 ft 307 kts 279°
2026-05-05 17:46 32.70618 -97.30371 10615 ft 324 kts 279°
2026-05-05 17:46 32.71073 -97.33052 10832 ft 336 kts 279°
2026-05-05 17:47 32.71538 -97.35793 11304 ft 340 kts 279°
2026-05-05 17:47 32.72005 -97.38551 11867 ft 341 kts 279°
2026-05-05 17:47 32.72315 -97.40385 12226 ft 342 kts 279°
2026-05-05 17:47 32.72784 -97.43167 12799 ft 344 kts 278°
2026-05-05 17:48 32.73254 -97.45963 13359 ft 346 kts 278°
2026-05-05 17:48 32.73724 -97.48771 13890 ft 347 kts 278°
2026-05-05 17:48 32.74197 -97.51598 14388 ft 349 kts 278°
2026-05-05 17:48 32.74672 -97.54435 14869 ft 351 kts 278°
2026-05-05 17:49 32.75148 -97.57289 15344 ft 353 kts 278°
2026-05-05 17:49 32.75629 -97.60163 15801 ft 355 kts 278°
2026-05-05 17:49 32.76112 -97.63056 16249 ft 358 kts 278°
2026-05-05 17:49 32.76596 -97.65964 16862 ft 360 kts 278°
2026-05-05 17:50 32.77082 -97.68896 17343 ft 362 kts 278°
2026-05-05 17:50 32.77570 -97.71840 17818 ft 364 kts 277°
2026-05-05 17:50 32.78089 -97.74798 18275 ft 367 kts 279°
2026-05-05 17:50 32.78718 -97.77749 18701 ft 369 kts 281°
2026-05-05 17:51 32.79417 -97.80690 19136 ft 370 kts 282°
2026-05-05 17:51 32.80144 -97.83621 19568 ft 370 kts 282°
2026-05-05 17:51 32.80872 -97.86553 19866 ft 369 kts 282°
2026-05-05 17:51 32.81586 -97.89484 20308 ft 369 kts 282°
2026-05-05 17:52 32.82287 -97.92420 20756 ft 369 kts 282°
2026-05-05 17:52 32.82979 -97.95357 21206 ft 369 kts 282°
2026-05-05 17:52 32.83657 -97.98262 21640 ft 369 kts 281°
2026-05-05 17:52 32.84339 -98.01201 22069 ft 369 kts 281°
2026-05-05 17:53 32.85020 -98.04146 22494 ft 369 kts 281°
2026-05-05 17:53 32.85701 -98.07090 22899 ft 369 kts 281°
2026-05-05 17:53 32.86382 -98.10034 23305 ft 369 kts 281°
2026-05-05 17:53 32.87064 -98.12984 23619 ft 370 kts 281°
2026-05-05 17:54 32.87748 -98.15943 23909 ft 371 kts 281°
2026-05-05 17:54 32.88433 -98.18911 24180 ft 373 kts 281°
2026-05-05 17:54 32.89120 -98.21890 24451 ft 374 kts 281°
2026-05-05 17:54 32.89811 -98.24881 24730 ft 375 kts 281°
2026-05-05 17:55 32.90508 -98.27883 25003 ft 377 kts 281°
2026-05-05 17:55 32.91204 -98.30892 25274 ft 378 kts 281°
2026-05-05 17:55 32.91902 -98.33916 25534 ft 379 kts 281°
2026-05-05 17:55 32.92599 -98.36949 25802 ft 380 kts 281°
2026-05-05 17:56 32.93297 -98.39992 26062 ft 382 kts 281°
2026-05-05 17:56 32.93998 -98.43049 26327 ft 383 kts 281°
2026-05-05 17:56 32.94700 -98.46113 26587 ft 385 kts 281°
2026-05-05 17:56 32.95405 -98.49192 26821 ft 386 kts 281°
2026-05-05 17:57 32.96110 -98.52281 27087 ft 387 kts 281°
2026-05-05 17:57 32.96817 -98.55384 27358 ft 389 kts 281°
2026-05-05 17:57 32.97526 -98.58493 27598 ft 390 kts 281°
2026-05-05 17:57 32.98238 -98.61614 27740 ft 387 kts 281°
2026-05-05 17:58 32.98928 -98.64628 27765 ft 377 kts 281°
2026-05-05 17:58 32.99613 -98.67629 27769 ft 374 kts 281°
2026-05-05 17:58 33.00291 -98.70616 27758 ft 372 kts 281°
2026-05-05 17:58 33.00966 -98.73594 27763 ft 372 kts 280°
2026-05-05 17:59 33.01641 -98.76574 27758 ft 372 kts 280°
2026-05-05 17:59 33.02314 -98.79552 27749 ft 372 kts 281°
2026-05-05 17:59 33.02984 -98.82529 27753 ft 372 kts 280°
2026-05-05 17:59 33.03655 -98.85511 27748 ft 372 kts 280°
2026-05-05 18:00 33.04326 -98.88484 27733 ft 371 kts 280°
2026-05-05 18:00 33.04996 -98.91457 27728 ft 371 kts 280°
2026-05-05 18:00 33.05656 -98.94391 27726 ft 371 kts 280°
2026-05-05 18:00 33.06323 -98.97361 27721 ft 371 kts 280°
2026-05-05 18:01 33.06990 -99.00329 27720 ft 371 kts 280°
2026-05-05 18:01 33.07657 -99.03299 27721 ft 370 kts 280°
2026-05-05 18:01 33.08323 -99.06267 27724 ft 370 kts 280°
2026-05-05 18:01 33.08990 -99.09233 27724 ft 370 kts 280°
2026-05-05 18:02 33.09653 -99.12201 27725 ft 370 kts 280°
2026-05-05 18:02 33.10314 -99.15172 27728 ft 370 kts 279°
2026-05-05 18:02 33.10972 -99.18142 27727 ft 370 kts 279°
2026-05-05 18:02 33.11631 -99.21117 27728 ft 370 kts 279°
2026-05-05 18:03 33.12292 -99.24087 27722 ft 370 kts 279°
2026-05-05 18:03 33.12953 -99.27059 27722 ft 370 kts 279°
2026-05-05 18:03 33.13607 -99.29996 27723 ft 370 kts 279°
2026-05-05 18:03 33.14266 -99.32964 27723 ft 370 kts 279°
2026-05-05 18:04 33.14922 -99.35933 27733 ft 370 kts 279°
2026-05-05 18:04 33.15574 -99.38904 27731 ft 370 kts 279°
2026-05-05 18:04 33.16225 -99.41876 27737 ft 370 kts 279°
2026-05-05 18:04 33.16876 -99.44853 27734 ft 370 kts 279°
2026-05-05 18:05 33.17529 -99.47827 27735 ft 370 kts 279°
2026-05-05 18:05 33.18182 -99.50800 27737 ft 370 kts 279°
2026-05-05 18:05 33.18833 -99.53771 27739 ft 370 kts 279°
2026-05-05 18:05 33.19486 -99.56743 27744 ft 370 kts 279°
2026-05-05 18:06 33.20138 -99.59717 27740 ft 370 kts 279°
2026-05-05 18:06 33.20574 -99.61687 27742 ft 370 kts 279°
2026-05-05 18:06 33.21475 -99.65655 27746 ft 370 kts 279°
2026-05-05 18:06 33.22158 -99.68619 27751 ft 370 kts 279°
2026-05-05 18:07 33.22840 -99.71585 27753 ft 370 kts 279°
2026-05-05 18:07 33.23519 -99.74552 27753 ft 370 kts 279°
2026-05-05 18:07 33.24193 -99.77515 27754 ft 370 kts 279°
2026-05-05 18:07 33.24863 -99.80484 27759 ft 370 kts 279°
2026-05-05 18:08 33.25521 -99.83415 27757 ft 370 kts 279°
2026-05-05 18:08 33.26186 -99.86382 27757 ft 370 kts 279°
2026-05-05 18:08 33.26853 -99.89348 27758 ft 370 kts 279°
2026-05-05 18:08 33.27522 -99.92318 27761 ft 370 kts 279°
2026-05-05 18:09 33.28189 -99.95283 27763 ft 369 kts 279°
2026-05-05 18:09 33.28856 -99.98248 27758 ft 369 kts 279°
2026-05-05 18:09 33.29523 -100.01213 27754 ft 369 kts 279°
2026-05-05 18:09 33.30188 -100.04178 27754 ft 369 kts 279°
2026-05-05 18:10 33.30851 -100.07140 27757 ft 369 kts 279°
2026-05-05 18:10 33.31515 -100.10113 27757 ft 370 kts 279°
2026-05-05 18:10 33.32176 -100.13080 27754 ft 370 kts 279°
2026-05-05 18:10 33.32841 -100.16055 27750 ft 370 kts 279°
2026-05-05 18:11 33.33503 -100.19030 27763 ft 370 kts 279°
2026-05-05 18:11 33.34162 -100.22006 27761 ft 371 kts 279°
2026-05-05 18:11 33.34822 -100.24989 27756 ft 371 kts 279°
2026-05-05 18:11 33.35483 -100.27971 27759 ft 371 kts 279°
2026-05-05 18:12 33.36145 -100.30954 27754 ft 371 kts 279°
2026-05-05 18:12 33.36808 -100.33932 27760 ft 371 kts 279°
2026-05-05 18:12 33.37472 -100.36925 27759 ft 371 kts 279°
2026-05-05 18:12 33.38126 -100.39877 27759 ft 371 kts 279°
2026-05-05 18:13 33.38794 -100.42904 27759 ft 371 kts 278°
2026-05-05 18:13 33.39451 -100.45891 27763 ft 372 kts 278°
2026-05-05 18:13 33.40109 -100.48884 27759 ft 372 kts 278°
2026-05-05 18:13 33.40759 -100.51842 27758 ft 372 kts 278°
2026-05-05 18:14 33.41415 -100.54836 27757 ft 372 kts 278°
2026-05-05 18:14 33.42072 -100.57837 27760 ft 372 kts 278°
2026-05-05 18:14 33.42724 -100.60834 27760 ft 372 kts 278°
2026-05-05 18:14 33.43371 -100.63835 27760 ft 373 kts 278°
2026-05-05 18:15 33.44022 -100.66837 27762 ft 373 kts 278°
2026-05-05 18:15 33.44683 -100.69852 27763 ft 373 kts 278°
2026-05-05 18:15 33.45345 -100.72859 27762 ft 373 kts 278°
2026-05-05 18:15 33.46004 -100.75866 27761 ft 374 kts 278°
2026-05-05 18:16 33.46661 -100.78883 27760 ft 374 kts 278°
2026-05-05 18:16 33.47312 -100.81897 27761 ft 374 kts 278°
2026-05-05 18:16 33.47964 -100.84917 27762 ft 374 kts 278°
2026-05-05 18:16 33.48613 -100.87934 27762 ft 374 kts 278°
2026-05-05 18:17 33.49265 -100.90954 27764 ft 374 kts 278°
2026-05-05 18:17 33.49916 -100.93974 27765 ft 375 kts 278°
2026-05-05 18:17 33.50558 -100.96955 27768 ft 375 kts 278°
2026-05-05 18:17 33.51210 -100.99981 27772 ft 375 kts 278°
2026-05-05 18:18 33.51860 -101.03006 27771 ft 375 kts 278°
2026-05-05 18:18 33.52503 -101.06037 27772 ft 375 kts 278°
2026-05-05 18:18 33.53130 -101.09074 27774 ft 374 kts 277°
2026-05-05 18:18 33.53744 -101.12110 27772 ft 374 kts 277°
2026-05-05 18:19 33.54353 -101.15141 27775 ft 374 kts 277°
2026-05-05 18:19 33.54960 -101.18174 27777 ft 374 kts 277°
2026-05-05 18:19 33.55565 -101.21203 27776 ft 374 kts 277°
2026-05-05 18:19 33.56173 -101.24239 27778 ft 374 kts 277°
2026-05-05 18:20 33.56779 -101.27273 27774 ft 374 kts 277°
2026-05-05 18:20 33.57384 -101.30299 27775 ft 374 kts 277°
2026-05-05 18:20 33.57995 -101.33335 27777 ft 374 kts 277°
2026-05-05 18:20 33.58605 -101.36366 27773 ft 374 kts 277°
2026-05-05 18:21 33.59216 -101.39404 27779 ft 374 kts 277°
2026-05-05 18:21 33.59824 -101.42435 27794 ft 374 kts 277°
2026-05-05 18:21 33.60430 -101.45470 27804 ft 374 kts 277°
2026-05-05 18:21 33.61026 -101.48463 27820 ft 374 kts 277°
2026-05-05 18:22 33.61626 -101.51494 27835 ft 374 kts 276°
2026-05-05 18:22 33.62227 -101.54527 27854 ft 374 kts 276°
2026-05-05 18:22 33.62830 -101.57561 27864 ft 374 kts 276°
2026-05-05 18:22 33.63432 -101.60594 27883 ft 374 kts 276°
2026-05-05 18:23 33.64032 -101.63629 27898 ft 373 kts 276°
2026-05-05 18:23 33.64631 -101.66662 27915 ft 373 kts 276°
2026-05-05 18:23 33.65227 -101.69688 27931 ft 373 kts 276°
2026-05-05 18:23 33.65824 -101.72721 27941 ft 373 kts 276°
2026-05-05 18:24 33.66422 -101.75754 27938 ft 373 kts 276°
2026-05-05 18:24 33.67020 -101.78783 27935 ft 373 kts 276°
2026-05-05 18:24 33.67617 -101.81817 27933 ft 373 kts 276°
2026-05-05 18:24 33.68210 -101.84843 27935 ft 373 kts 276°
2026-05-05 18:25 33.68803 -101.87875 27931 ft 373 kts 276°
2026-05-05 18:25 33.68995 -101.88855 27931 ft 373 kts 276°
2026-05-05 18:25 33.69984 -101.93929 27918 ft 372 kts 276°
2026-05-05 18:25 33.70571 -101.96962 27904 ft 372 kts 276°
2026-05-05 18:26 33.71160 -101.99991 27886 ft 372 kts 276°
2026-05-05 18:26 33.71749 -102.03018 27869 ft 372 kts 276°
2026-05-05 18:26 33.72338 -102.06049 27852 ft 372 kts 276°
2026-05-05 18:26 33.72929 -102.09081 27834 ft 372 kts 276°
2026-05-05 18:27 33.73519 -102.12115 27819 ft 372 kts 276°
2026-05-05 18:27 33.74098 -102.15101 27826 ft 372 kts 276°
2026-05-05 18:27 33.74683 -102.18131 27836 ft 372 kts 276°
2026-05-05 18:27 33.75265 -102.21162 27842 ft 372 kts 275°
2026-05-05 18:28 33.76426 -102.27226 27854 ft 372 kts 275°
2026-05-05 18:28 33.77009 -102.30257 27852 ft 372 kts 276°
2026-05-05 18:28 33.77593 -102.33289 27851 ft 372 kts 275°
2026-05-05 18:29 33.78175 -102.36316 27846 ft 372 kts 275°
2026-05-05 18:29 33.78756 -102.39348 27829 ft 372 kts 275°
2026-05-05 18:29 33.79333 -102.42376 27824 ft 372 kts 275°
2026-05-05 18:29 33.79910 -102.45410 27821 ft 372 kts 275°
2026-05-05 18:30 33.80487 -102.48443 27813 ft 372 kts 275°
2026-05-05 18:30 33.81064 -102.51477 27804 ft 372 kts 275°
2026-05-05 18:30 33.81638 -102.54508 27792 ft 372 kts 275°
2026-05-05 18:30 33.82210 -102.57547 27774 ft 372 kts 275°
2026-05-05 18:31 33.82781 -102.60583 27778 ft 372 kts 275°
2026-05-05 18:31 33.83353 -102.63620 27761 ft 373 kts 275°
2026-05-05 18:31 33.83921 -102.66624 27745 ft 373 kts 275°
2026-05-05 18:31 33.84497 -102.69663 27750 ft 373 kts 275°
2026-05-05 18:32 33.85071 -102.72702 27752 ft 373 kts 275°
2026-05-05 18:32 33.85646 -102.75746 27766 ft 373 kts 275°
2026-05-05 18:32 33.86217 -102.78792 27762 ft 373 kts 275°
2026-05-05 18:32 33.86786 -102.81837 27758 ft 373 kts 275°
2026-05-05 18:33 33.87353 -102.84883 27765 ft 373 kts 275°
2026-05-05 18:33 33.87737 -102.86943 27759 ft 373 kts 275°
2026-05-05 18:33 33.88308 -102.89995 27770 ft 373 kts 275°
2026-05-05 18:33 33.88873 -102.93008 27761 ft 374 kts 275°
2026-05-05 18:34 33.89443 -102.96057 27772 ft 374 kts 275°
2026-05-05 18:34 33.90011 -102.99110 27773 ft 374 kts 274°
2026-05-05 18:34 33.90578 -103.02160 27772 ft 374 kts 274°
2026-05-05 18:34 33.91143 -103.05218 27781 ft 374 kts 274°
2026-05-05 18:35 33.91707 -103.08274 27779 ft 374 kts 274°
2026-05-05 18:35 33.92270 -103.11329 27776 ft 374 kts 274°
2026-05-05 18:35 33.92833 -103.14383 27782 ft 374 kts 274°
2026-05-05 18:35 33.93397 -103.17440 27780 ft 374 kts 274°
2026-05-05 18:36 33.93960 -103.20499 27779 ft 374 kts 274°
2026-05-05 18:36 33.94521 -103.23563 27777 ft 374 kts 274°
2026-05-05 18:36 33.95082 -103.26629 27780 ft 374 kts 274°
2026-05-05 18:36 33.95642 -103.29690 27780 ft 374 kts 274°
2026-05-05 18:37 33.96195 -103.32708 27776 ft 374 kts 274°
2026-05-05 18:37 33.96754 -103.35773 27776 ft 374 kts 274°
2026-05-05 18:37 33.97311 -103.38834 27775 ft 374 kts 274°
2026-05-05 18:37 33.97866 -103.41897 27773 ft 374 kts 274°
2026-05-05 18:38 33.98421 -103.44962 27773 ft 374 kts 274°
2026-05-05 18:38 33.98977 -103.48027 27766 ft 374 kts 274°
2026-05-05 18:38 33.99534 -103.51092 27762 ft 374 kts 274°
2026-05-05 18:38 34.00090 -103.54158 27753 ft 374 kts 274°
2026-05-05 18:39 34.00647 -103.57227 27758 ft 374 kts 274°
2026-05-05 18:39 34.01204 -103.60291 27756 ft 374 kts 274°
2026-05-05 18:39 34.01758 -103.63357 27749 ft 374 kts 274°
2026-05-05 18:39 34.02310 -103.66424 27749 ft 374 kts 274°
2026-05-05 18:40 34.02861 -103.69490 27745 ft 374 kts 274°
2026-05-05 18:40 34.03411 -103.72556 27745 ft 374 kts 274°
2026-05-05 18:40 34.03960 -103.75627 27739 ft 374 kts 274°
2026-05-05 18:40 34.04506 -103.78695 27732 ft 374 kts 274°
2026-05-05 18:41 34.05044 -103.81727 27723 ft 374 kts 274°
2026-05-05 18:41 34.05587 -103.84793 27715 ft 374 kts 274°
2026-05-05 18:41 34.06128 -103.87865 27709 ft 374 kts 274°
2026-05-05 18:41 34.06673 -103.90934 27704 ft 375 kts 274°
2026-05-05 18:42 34.07222 -103.94008 27699 ft 375 kts 274°
2026-05-05 18:42 34.07768 -103.97082 27700 ft 375 kts 274°
2026-05-05 18:42 34.08311 -104.00152 27702 ft 375 kts 274°
2026-05-05 18:42 34.08854 -104.03231 27699 ft 375 kts 274°
2026-05-05 18:43 34.09393 -104.06305 27705 ft 375 kts 274°
2026-05-05 18:43 34.09937 -104.09386 27707 ft 375 kts 274°
2026-05-05 18:43 34.10481 -104.12466 27711 ft 375 kts 274°
2026-05-05 18:43 34.11022 -104.15543 27717 ft 375 kts 274°
2026-05-05 18:44 34.11563 -104.18619 27717 ft 375 kts 274°
2026-05-05 18:44 34.12105 -104.21695 27718 ft 375 kts 274°
2026-05-05 18:44 34.12646 -104.24770 27719 ft 374 kts 274°
2026-05-05 18:44 34.13183 -104.27846 27719 ft 374 kts 274°
2026-05-05 18:45 34.13714 -104.30917 27715 ft 374 kts 274°
2026-05-05 18:45 34.14243 -104.33995 27717 ft 374 kts 274°
2026-05-05 18:45 34.14773 -104.37070 27722 ft 374 kts 274°
2026-05-05 18:45 34.15305 -104.40144 27721 ft 374 kts 274°
2026-05-05 18:46 34.15837 -104.43219 27722 ft 374 kts 274°
2026-05-05 18:46 34.16371 -104.46293 27719 ft 374 kts 274°
2026-05-05 18:46 34.16904 -104.49369 27722 ft 374 kts 274°
2026-05-05 18:46 34.17432 -104.52409 27727 ft 375 kts 274°
2026-05-05 18:47 34.17963 -104.55487 27734 ft 375 kts 274°
2026-05-05 18:47 34.18494 -104.58574 27731 ft 375 kts 274°
2026-05-05 18:47 34.19021 -104.61658 27735 ft 375 kts 274°
2026-05-05 18:47 34.19547 -104.64743 27740 ft 375 kts 274°
2026-05-05 18:48 34.20081 -104.67875 27744 ft 375 kts 274°
2026-05-05 18:48 34.20600 -104.70922 27747 ft 376 kts 274°
2026-05-05 18:48 34.21129 -104.74014 27748 ft 376 kts 274°
2026-05-05 18:48 34.21657 -104.77103 27752 ft 375 kts 274°
2026-05-05 18:49 34.22185 -104.80197 27755 ft 375 kts 274°
2026-05-05 18:49 34.22710 -104.83287 27755 ft 376 kts 274°
2026-05-05 18:49 34.23232 -104.86380 27757 ft 376 kts 274°
2026-05-05 18:49 34.23753 -104.89471 27764 ft 376 kts 274°
2026-05-05 18:50 34.24274 -104.92567 27761 ft 376 kts 274°
2026-05-05 18:50 34.24796 -104.95662 27769 ft 376 kts 274°
2026-05-05 18:50 34.25318 -104.98768 27773 ft 377 kts 273°
2026-05-05 18:50 34.25838 -105.01871 27775 ft 377 kts 273°
2026-05-05 18:51 34.26358 -105.04979 27782 ft 377 kts 273°
2026-05-05 18:51 34.26878 -105.08085 27783 ft 378 kts 273°
2026-05-05 18:51 34.27398 -105.11197 27786 ft 378 kts 273°
2026-05-05 18:51 34.27917 -105.14318 27791 ft 378 kts 273°
2026-05-05 18:52 34.28435 -105.17434 27794 ft 378 kts 273°
2026-05-05 18:52 34.28956 -105.20556 27798 ft 379 kts 273°
2026-05-05 18:52 34.29478 -105.23683 27806 ft 379 kts 273°
2026-05-05 18:52 34.29997 -105.26812 27803 ft 380 kts 273°
2026-05-05 18:53 34.30516 -105.29945 27810 ft 380 kts 273°
2026-05-05 18:53 34.31033 -105.33078 27816 ft 380 kts 273°
2026-05-05 18:53 34.31548 -105.36217 27822 ft 380 kts 273°
2026-05-05 18:53 34.32063 -105.39357 27828 ft 380 kts 273°
2026-05-05 18:54 34.32579 -105.42496 27836 ft 380 kts 273°
2026-05-05 18:54 34.33096 -105.45638 27840 ft 380 kts 273°
2026-05-05 18:54 34.33607 -105.48739 27849 ft 380 kts 273°
2026-05-05 18:54 34.34122 -105.51877 27854 ft 380 kts 273°
2026-05-05 18:55 34.34634 -105.55021 27861 ft 380 kts 272°
2026-05-05 18:55 34.35140 -105.58157 27866 ft 380 kts 272°
2026-05-05 18:55 34.35647 -105.61294 27869 ft 379 kts 272°
2026-05-05 18:55 34.36155 -105.64431 27869 ft 379 kts 272°
2026-05-05 18:56 34.36599 -105.67560 27870 ft 374 kts 268°
2026-05-05 18:56 34.36655 -105.70674 27875 ft 368 kts 262°
2026-05-05 18:56 34.36587 -105.73768 27873 ft 368 kts 262°
2026-05-05 18:56 34.36519 -105.76862 27878 ft 368 kts 262°
2026-05-05 18:57 34.36454 -105.79958 27878 ft 367 kts 262°
2026-05-05 18:57 34.36391 -105.83051 27855 ft 369 kts 262°
2026-05-05 18:57 34.36323 -105.86156 27848 ft 370 kts 262°
2026-05-05 18:57 34.36252 -105.89278 27847 ft 371 kts 262°
2026-05-05 18:58 34.36183 -105.92406 27845 ft 372 kts 263°
2026-05-05 18:58 34.36116 -105.95546 27843 ft 373 kts 262°
2026-05-05 18:58 34.36048 -105.98690 27858 ft 374 kts 262°
2026-05-05 18:58 34.35980 -106.01837 27851 ft 374 kts 262°
2026-05-05 18:59 34.35909 -106.04986 27853 ft 374 kts 262°
2026-05-05 18:59 34.35836 -106.08134 27856 ft 374 kts 263°
2026-05-05 18:59 34.35764 -106.11284 27855 ft 374 kts 262°
2026-05-05 18:59 34.35691 -106.14430 27860 ft 374 kts 262°
2026-05-05 19:00 34.35616 -106.17575 27859 ft 374 kts 262°
2026-05-05 19:00 34.35539 -106.20720 27859 ft 374 kts 262°
2026-05-05 19:00 34.35461 -106.23859 27859 ft 373 kts 262°
2026-05-05 19:00 34.35384 -106.27004 27857 ft 373 kts 262°
2026-05-05 19:01 34.35305 -106.30144 27856 ft 373 kts 262°
2026-05-05 19:01 34.35225 -106.33283 27854 ft 373 kts 262°
2026-05-05 19:01 34.35149 -106.36383 27850 ft 373 kts 262°
2026-05-05 19:01 34.35069 -106.39521 27846 ft 373 kts 262°
2026-05-05 19:02 34.34985 -106.42661 27846 ft 373 kts 262°
2026-05-05 19:02 34.34901 -106.45797 27842 ft 373 kts 262°
2026-05-05 19:02 34.34818 -106.48933 27840 ft 373 kts 262°
2026-05-05 19:02 34.34735 -106.52066 27836 ft 373 kts 262°
2026-05-05 19:03 34.34649 -106.55205 27831 ft 373 kts 262°
2026-05-05 19:03 34.34562 -106.58343 27827 ft 373 kts 262°
2026-05-05 19:03 34.34477 -106.61482 27828 ft 373 kts 262°
2026-05-05 19:03 34.34393 -106.64624 27826 ft 373 kts 262°
2026-05-05 19:04 34.34309 -106.67768 27830 ft 373 kts 262°
2026-05-05 19:04 34.34223 -106.70911 27830 ft 373 kts 262°
2026-05-05 19:04 34.34134 -106.74049 27834 ft 373 kts 262°
2026-05-05 19:04 34.34040 -106.77186 27839 ft 373 kts 262°
2026-05-05 19:05 34.33946 -106.80327 27845 ft 373 kts 262°
2026-05-05 19:05 34.33955 -106.83438 27841 ft 376 kts 266°
2026-05-05 19:05 34.34104 -106.86595 27841 ft 376 kts 266°
2026-05-05 19:05 34.34250 -106.89761 27837 ft 376 kts 266°
2026-05-05 19:06 34.34396 -106.92924 27835 ft 376 kts 266°
2026-05-05 19:06 34.34539 -106.96087 27836 ft 377 kts 266°
2026-05-05 19:06 34.34678 -106.99253 27835 ft 377 kts 266°
2026-05-05 19:06 34.34818 -107.02419 27832 ft 377 kts 266°
2026-05-05 19:07 34.34958 -107.05586 27828 ft 377 kts 266°
2026-05-05 19:07 34.35099 -107.08750 27827 ft 377 kts 266°
2026-05-05 19:07 34.35238 -107.11916 27827 ft 377 kts 266°
2026-05-05 19:07 34.35377 -107.15081 27827 ft 377 kts 266°
2026-05-05 19:08 34.35514 -107.18248 27834 ft 377 kts 266°
2026-05-05 19:08 34.35647 -107.21416 27835 ft 377 kts 266°
2026-05-05 19:08 34.35781 -107.24584 27840 ft 376 kts 266°
2026-05-05 19:08 34.35915 -107.27746 27842 ft 376 kts 266°
2026-05-05 19:09 34.36048 -107.30908 27842 ft 376 kts 265°
2026-05-05 19:09 34.36181 -107.34068 27843 ft 376 kts 266°
2026-05-05 19:09 34.36314 -107.37224 27840 ft 375 kts 266°
2026-05-05 19:09 34.36445 -107.40384 27836 ft 376 kts 266°
2026-05-05 19:10 34.36577 -107.43543 27835 ft 376 kts 266°
2026-05-05 19:10 34.36710 -107.46701 27838 ft 376 kts 266°
2026-05-05 19:10 34.36842 -107.49861 27836 ft 376 kts 266°
2026-05-05 19:10 34.36972 -107.53022 27839 ft 376 kts 266°
2026-05-05 19:11 34.37101 -107.56186 27830 ft 376 kts 266°
2026-05-05 19:11 34.37226 -107.59355 27841 ft 377 kts 266°
2026-05-05 19:11 34.37345 -107.62491 27841 ft 377 kts 266°
2026-05-05 19:11 34.37465 -107.65663 27845 ft 378 kts 265°
2026-05-05 19:12 34.37589 -107.68847 27840 ft 378 kts 266°
2026-05-05 19:12 34.37715 -107.72024 27840 ft 378 kts 266°
2026-05-05 19:12 34.37842 -107.75207 27850 ft 378 kts 266°
2026-05-05 19:12 34.37965 -107.78384 27850 ft 378 kts 265°
2026-05-05 19:13 34.38086 -107.81567 27851 ft 378 kts 265°
2026-05-05 19:13 34.38205 -107.84745 27854 ft 378 kts 265°
2026-05-05 19:13 34.38324 -107.87924 27855 ft 378 kts 265°
2026-05-05 19:13 34.38441 -107.91103 27856 ft 378 kts 265°
2026-05-05 19:14 34.38557 -107.94286 27855 ft 378 kts 265°
2026-05-05 19:14 34.38673 -107.97465 27848 ft 378 kts 265°
2026-05-05 19:14 34.38791 -108.00648 27862 ft 379 kts 265°
2026-05-05 19:14 34.38908 -108.03836 27866 ft 379 kts 265°
2026-05-05 19:15 34.39025 -108.07023 27862 ft 379 kts 265°
2026-05-05 19:15 34.39137 -108.10210 27865 ft 379 kts 265°
2026-05-05 19:15 34.39248 -108.13398 27866 ft 379 kts 265°
2026-05-05 19:15 34.39361 -108.16589 27870 ft 379 kts 265°
2026-05-05 19:16 34.39475 -108.19782 27868 ft 379 kts 265°
2026-05-05 19:16 34.39588 -108.22974 27864 ft 379 kts 265°
2026-05-05 19:16 34.39699 -108.26169 27869 ft 379 kts 265°
2026-05-05 19:16 34.39808 -108.29357 27861 ft 379 kts 265°
2026-05-05 19:17 34.39915 -108.32543 27864 ft 379 kts 265°
2026-05-05 19:17 34.40021 -108.35733 27862 ft 379 kts 265°
2026-05-05 19:17 34.40093 -108.37842 27863 ft 379 kts 265°
2026-05-05 19:17 34.40200 -108.41029 27859 ft 379 kts 265°
2026-05-05 19:18 34.40306 -108.44215 27861 ft 379 kts 265°
2026-05-05 19:18 34.40441 -108.48433 27861 ft 379 kts 265°
2026-05-05 19:18 34.40543 -108.51618 27856 ft 379 kts 265°
2026-05-05 19:18 34.40647 -108.54806 27861 ft 379 kts 265°
2026-05-05 19:19 34.40716 -108.56966 27865 ft 379 kts 265°
2026-05-05 19:19 34.40816 -108.60153 27865 ft 378 kts 265°
2026-05-05 19:19 34.40913 -108.63296 27868 ft 378 kts 265°
2026-05-05 19:19 34.41009 -108.66483 27869 ft 378 kts 265°
2026-05-05 19:20 34.41105 -108.69666 27860 ft 378 kts 265°
2026-05-05 19:20 34.41203 -108.72846 27863 ft 378 kts 265°
2026-05-05 19:20 34.41302 -108.76026 27865 ft 378 kts 265°
2026-05-05 19:20 34.41399 -108.79207 27863 ft 378 kts 265°
2026-05-05 19:21 34.41496 -108.82385 27860 ft 377 kts 265°
2026-05-05 19:21 34.41590 -108.85559 27862 ft 377 kts 265°
2026-05-05 19:21 34.41685 -108.88740 27859 ft 377 kts 264°
2026-05-05 19:21 34.41780 -108.91920 27864 ft 377 kts 264°
2026-05-05 19:22 34.41872 -108.95090 27860 ft 377 kts 264°
2026-05-05 19:22 34.41961 -108.98266 27873 ft 377 kts 264°
2026-05-05 19:22 34.42050 -109.01395 27888 ft 377 kts 264°
2026-05-05 19:22 34.42138 -109.04565 27901 ft 377 kts 264°
2026-05-05 19:23 34.42225 -109.07733 27916 ft 377 kts 264°
2026-05-05 19:23 34.42311 -109.10903 27933 ft 377 kts 264°
2026-05-05 19:23 34.42397 -109.14076 27951 ft 377 kts 264°
2026-05-05 19:23 34.42557 -109.17257 27968 ft 379 kts 267°
2026-05-05 19:24 34.42837 -109.20443 27987 ft 381 kts 268°
2026-05-05 19:24 34.43183 -109.23631 27998 ft 382 kts 269°
2026-05-05 19:24 34.43900 -109.30003 28020 ft 382 kts 269°
2026-05-05 19:25 34.44550 -109.36374 28022 ft 381 kts 268°
2026-05-05 19:25 34.45152 -109.42748 28018 ft 381 kts 268°
2026-05-05 19:26 34.45743 -109.49118 27997 ft 380 kts 268°
2026-05-05 19:26 34.46038 -109.52300 27987 ft 381 kts 268°
2026-05-05 19:26 34.46337 -109.55488 27972 ft 381 kts 268°
2026-05-05 19:27 34.46637 -109.58676 27961 ft 381 kts 268°
2026-05-05 19:27 34.46937 -109.61865 27948 ft 381 kts 268°
2026-05-05 19:27 34.47239 -109.65053 27940 ft 381 kts 268°
2026-05-05 19:27 34.47537 -109.68251 27930 ft 381 kts 268°
2026-05-05 19:28 34.47831 -109.71439 27916 ft 381 kts 268°
2026-05-05 19:28 34.48123 -109.74630 27902 ft 381 kts 268°
2026-05-05 19:28 34.48415 -109.77828 27923 ft 381 kts 268°
2026-05-05 19:28 34.48710 -109.81020 27940 ft 381 kts 268°
2026-05-05 19:29 34.49007 -109.84217 27955 ft 381 kts 268°
2026-05-05 19:29 34.49302 -109.87409 27971 ft 381 kts 268°
2026-05-05 19:29 34.49592 -109.90560 27984 ft 381 kts 268°
2026-05-05 19:29 34.49882 -109.93756 27997 ft 381 kts 268°
2026-05-05 19:30 34.50455 -110.00148 28024 ft 382 kts 268°
2026-05-05 19:30 34.51027 -110.06550 28038 ft 382 kts 268°
2026-05-05 19:31 34.51603 -110.12956 28022 ft 382 kts 267°
2026-05-05 19:31 34.52178 -110.19363 28018 ft 382 kts 267°
2026-05-05 19:32 34.52746 -110.25774 27998 ft 382 kts 267°
2026-05-05 19:32 34.53029 -110.28984 27982 ft 382 kts 267°
2026-05-05 19:32 34.53312 -110.32193 27971 ft 382 kts 267°
2026-05-05 19:33 34.53592 -110.35401 27956 ft 382 kts 267°
2026-05-05 19:33 34.53869 -110.38608 27941 ft 382 kts 267°
2026-05-05 19:33 34.54147 -110.41813 27925 ft 382 kts 267°
2026-05-05 19:33 34.54421 -110.44985 27911 ft 383 kts 267°
2026-05-05 19:34 34.54695 -110.48198 27898 ft 383 kts 267°
2026-05-05 19:34 34.54967 -110.51412 27883 ft 383 kts 267°
2026-05-05 19:34 34.55241 -110.54622 27871 ft 383 kts 267°
2026-05-05 19:35 34.55788 -110.61057 27873 ft 383 kts 267°
2026-05-05 19:35 34.56063 -110.64276 27880 ft 384 kts 267°
2026-05-05 19:35 34.56337 -110.67495 27879 ft 384 kts 267°
2026-05-05 19:35 34.56611 -110.70720 27884 ft 384 kts 267°
2026-05-05 19:36 34.56884 -110.73948 27882 ft 385 kts 267°
2026-05-05 19:36 34.57155 -110.77181 27890 ft 385 kts 267°
2026-05-05 19:36 34.57426 -110.80415 27891 ft 385 kts 267°
2026-05-05 19:36 34.57697 -110.83648 27892 ft 385 kts 267°
2026-05-05 19:37 34.57966 -110.86881 27904 ft 385 kts 267°
2026-05-05 19:37 34.58233 -110.90115 27896 ft 385 kts 267°
2026-05-05 19:37 34.58500 -110.93350 27904 ft 385 kts 267°
2026-05-05 19:37 34.58766 -110.96595 27891 ft 385 kts 267°
2026-05-05 19:38 34.59028 -110.99794 27891 ft 386 kts 268°
2026-05-05 19:38 34.59295 -111.03081 27895 ft 386 kts 267°
2026-05-05 19:38 34.59557 -111.06322 27895 ft 386 kts 268°
2026-05-05 19:38 34.59816 -111.09524 27900 ft 387 kts 268°
2026-05-05 19:39 34.60081 -111.12777 27900 ft 387 kts 268°
2026-05-05 19:39 34.60346 -111.16028 27906 ft 387 kts 268°
2026-05-05 19:39 34.60610 -111.19281 27907 ft 388 kts 268°
2026-05-05 19:39 34.60874 -111.22541 27907 ft 388 kts 268°
2026-05-05 19:40 34.61139 -111.25804 27905 ft 388 kts 268°
2026-05-05 19:40 34.61400 -111.29063 27905 ft 388 kts 268°
2026-05-05 19:40 34.61658 -111.32336 27902 ft 389 kts 268°
2026-05-05 19:40 34.61913 -111.35606 27901 ft 389 kts 268°
2026-05-05 19:41 34.62167 -111.38876 27900 ft 389 kts 268°
2026-05-05 19:41 34.62424 -111.42149 27897 ft 389 kts 268°
2026-05-05 19:41 34.62683 -111.45427 27897 ft 390 kts 268°
2026-05-05 19:41 34.62938 -111.48658 27901 ft 390 kts 268°
2026-05-05 19:42 34.63194 -111.51938 27900 ft 390 kts 268°
2026-05-05 19:42 34.63448 -111.55220 27900 ft 391 kts 268°
2026-05-05 19:42 34.63699 -111.58506 27901 ft 391 kts 268°
2026-05-05 19:42 34.63949 -111.61798 27906 ft 392 kts 268°
2026-05-05 19:43 34.64200 -111.65091 27906 ft 392 kts 268°
2026-05-05 19:43 34.64451 -111.68390 27910 ft 393 kts 268°
2026-05-05 19:43 34.64702 -111.71696 27910 ft 393 kts 268°
2026-05-05 19:43 34.64952 -111.75015 27913 ft 394 kts 268°
2026-05-05 19:44 34.65201 -111.78329 27915 ft 395 kts 268°
2026-05-05 19:44 34.65449 -111.81653 27914 ft 395 kts 268°
2026-05-05 19:44 34.65696 -111.84976 27911 ft 396 kts 269°
2026-05-05 19:44 34.65945 -111.88312 27907 ft 397 kts 269°
2026-05-05 19:45 34.66195 -111.91652 27902 ft 398 kts 269°
2026-05-05 19:45 34.66444 -111.94995 27895 ft 398 kts 269°
2026-05-05 19:45 34.66691 -111.98351 27886 ft 399 kts 269°
2026-05-05 19:45 34.66934 -112.01666 27883 ft 400 kts 269°
2026-05-05 19:46 34.67183 -112.05036 27870 ft 401 kts 269°
2026-05-05 19:46 34.67429 -112.08411 27885 ft 402 kts 269°
2026-05-05 19:46 34.67677 -112.11798 27895 ft 403 kts 269°
2026-05-05 19:46 34.67926 -112.15194 27910 ft 403 kts 269°
2026-05-05 19:47 34.68175 -112.18585 27927 ft 404 kts 269°
2026-05-05 19:47 34.68419 -112.21989 27940 ft 404 kts 269°
2026-05-05 19:47 34.68661 -112.25400 27947 ft 406 kts 269°
2026-05-05 19:47 34.68905 -112.28824 27955 ft 408 kts 269°
2026-05-05 19:48 34.69150 -112.32269 27980 ft 410 kts 269°
2026-05-05 19:48 34.69395 -112.35725 27980 ft 411 kts 269°
2026-05-05 19:48 34.69640 -112.39204 27984 ft 413 kts 269°
2026-05-05 19:48 34.69883 -112.42681 27983 ft 414 kts 269°
2026-05-05 19:49 34.70114 -112.46170 27983 ft 414 kts 268°
2026-05-05 19:49 34.70125 -112.48522 27985 ft 411 kts 263°
2026-05-05 19:49 34.69677 -112.53070 27975 ft 409 kts 258°
2026-05-05 19:49 34.69273 -112.56497 27962 ft 410 kts 258°
2026-05-05 19:50 34.68867 -112.59934 27946 ft 411 kts 258°
2026-05-05 19:50 34.68462 -112.63372 27932 ft 412 kts 258°
2026-05-05 19:50 34.68058 -112.66819 27905 ft 412 kts 258°
2026-05-05 19:50 34.67653 -112.70269 27889 ft 413 kts 258°
2026-05-05 19:51 34.67248 -112.73720 27875 ft 413 kts 258°
2026-05-05 19:51 34.66841 -112.77179 27863 ft 414 kts 258°
2026-05-05 19:51 34.66430 -112.80643 27844 ft 414 kts 258°
2026-05-05 19:51 34.66017 -112.84107 27834 ft 415 kts 258°
2026-05-05 19:52 34.65604 -112.87579 27827 ft 415 kts 258°
2026-05-05 19:52 34.65190 -112.91053 27825 ft 416 kts 258°
2026-05-05 19:52 34.64772 -112.94539 27833 ft 417 kts 258°
2026-05-05 19:52 34.64354 -112.98018 27834 ft 417 kts 258°
2026-05-05 19:53 34.63934 -113.01509 27837 ft 417 kts 258°
2026-05-05 19:53 34.63512 -113.04991 27834 ft 418 kts 258°
2026-05-05 19:53 34.63087 -113.08482 27832 ft 418 kts 258°
2026-05-05 19:53 34.62661 -113.11976 27839 ft 418 kts 258°
2026-05-05 19:54 34.62235 -113.15470 27839 ft 418 kts 258°
2026-05-05 19:54 34.61814 -113.18920 27835 ft 418 kts 258°
2026-05-05 19:54 34.61384 -113.22417 27835 ft 418 kts 258°
2026-05-05 19:54 34.60954 -113.25912 27833 ft 419 kts 259°
2026-05-05 19:55 34.60527 -113.29407 27832 ft 419 kts 259°
2026-05-05 19:55 34.60098 -113.32908 27833 ft 420 kts 258°
2026-05-05 19:55 34.59664 -113.36422 27834 ft 420 kts 258°
2026-05-05 19:55 34.59229 -113.39934 27832 ft 421 kts 258°
2026-05-05 19:56 34.58795 -113.43446 27837 ft 421 kts 258°
2026-05-05 19:56 34.58360 -113.46963 27834 ft 422 kts 259°
2026-05-05 19:56 34.57920 -113.50484 27837 ft 422 kts 259°
2026-05-05 19:56 34.57478 -113.54009 27838 ft 423 kts 259°
2026-05-05 19:57 34.57035 -113.57537 27839 ft 423 kts 259°
2026-05-05 19:57 34.56741 -113.59877 27841 ft 423 kts 259°
2026-05-05 19:57 34.56147 -113.64601 27844 ft 424 kts 259°
2026-05-05 19:57 34.55724 -113.68149 27840 ft 425 kts 259°
2026-05-05 19:58 34.55330 -113.71706 27843 ft 425 kts 260°
2026-05-05 19:58 34.54949 -113.75263 27840 ft 426 kts 260°
2026-05-05 19:58 34.54570 -113.78827 27841 ft 426 kts 260°
2026-05-05 19:58 34.54185 -113.82395 27844 ft 427 kts 260°
2026-05-05 19:59 34.53793 -113.85960 27844 ft 427 kts 260°
2026-05-05 19:59 34.53395 -113.89537 27844 ft 427 kts 260°
2026-05-05 19:59 34.52998 -113.93064 27853 ft 428 kts 260°
2026-05-05 19:59 34.52594 -113.96634 27858 ft 428 kts 260°
2026-05-05 20:00 34.52187 -114.00214 27862 ft 428 kts 260°
2026-05-05 20:00 34.51779 -114.03791 27869 ft 428 kts 260°
2026-05-05 20:00 34.51212 -114.07329 27878 ft 427 kts 254°
2026-05-05 20:00 34.50473 -114.10820 27877 ft 427 kts 254°
2026-05-05 20:01 34.49731 -114.14321 27890 ft 428 kts 254°
2026-05-05 20:01 34.48992 -114.17814 27890 ft 428 kts 254°
2026-05-05 20:01 34.48252 -114.21311 27889 ft 428 kts 254°
2026-05-05 20:01 34.47513 -114.24804 27892 ft 428 kts 254°
2026-05-05 20:02 34.46771 -114.28304 27894 ft 429 kts 254°
2026-05-05 20:02 34.46029 -114.31799 27901 ft 429 kts 254°
2026-05-05 20:02 34.45283 -114.35304 27892 ft 429 kts 254°
2026-05-05 20:02 34.44537 -114.38809 27893 ft 430 kts 254°
2026-05-05 20:03 34.43791 -114.42316 27887 ft 430 kts 254°
2026-05-05 20:03 34.43043 -114.45825 27886 ft 430 kts 254°
2026-05-05 20:03 34.42292 -114.49330 27881 ft 430 kts 254°
2026-05-05 20:03 34.41536 -114.52839 27880 ft 431 kts 254°
2026-05-05 20:04 34.41034 -114.55160 27887 ft 431 kts 254°
2026-05-05 20:04 34.40273 -114.58677 27884 ft 431 kts 254°
2026-05-05 20:04 34.39514 -114.62190 27880 ft 431 kts 254°
2026-05-05 20:04 34.38508 -114.66848 27872 ft 432 kts 254°
2026-05-05 20:05 34.37746 -114.70367 27870 ft 432 kts 254°
2026-05-05 20:05 34.37231 -114.72747 27870 ft 432 kts 254°
2026-05-05 20:05 34.36469 -114.76269 27871 ft 433 kts 254°
2026-05-05 20:05 34.35707 -114.79793 27870 ft 433 kts 254°
2026-05-05 20:06 34.34952 -114.83276 27874 ft 433 kts 254°
2026-05-05 20:06 34.34187 -114.86807 27875 ft 434 kts 254°
2026-05-05 20:06 34.33419 -114.90337 27875 ft 434 kts 254°
2026-05-05 20:06 34.32649 -114.93872 27880 ft 434 kts 254°
2026-05-05 20:07 34.31878 -114.97402 27879 ft 434 kts 254°
2026-05-05 20:07 34.31103 -115.00941 27880 ft 435 kts 254°
2026-05-05 20:07 34.30324 -115.04479 27884 ft 435 kts 254°
2026-05-05 20:07 34.29548 -115.08012 27885 ft 435 kts 254°
2026-05-05 20:08 34.28768 -115.11548 27885 ft 435 kts 254°
2026-05-05 20:08 34.27985 -115.15080 27883 ft 435 kts 254°
2026-05-05 20:08 34.27200 -115.18614 27886 ft 435 kts 254°
2026-05-05 20:08 34.26415 -115.22151 27886 ft 436 kts 254°
2026-05-05 20:09 34.25640 -115.25699 27883 ft 436 kts 255°
2026-05-05 20:09 34.24895 -115.29207 27885 ft 437 kts 255°
2026-05-05 20:09 34.24149 -115.32762 27885 ft 437 kts 255°
2026-05-05 20:09 34.23400 -115.36322 27884 ft 437 kts 255°
2026-05-05 20:10 34.22646 -115.39880 27884 ft 437 kts 255°
2026-05-05 20:10 34.21886 -115.43446 27883 ft 437 kts 255°
2026-05-05 20:10 34.21150 -115.46872 27885 ft 438 kts 255°
2026-05-05 20:10 34.20353 -115.50559 27886 ft 438 kts 255°
2026-05-05 20:11 34.19585 -115.54120 27886 ft 438 kts 255°
2026-05-05 20:11 34.18816 -115.57684 27888 ft 438 kts 255°
2026-05-05 20:11 34.18045 -115.61250 27888 ft 438 kts 255°
2026-05-05 20:11 34.17277 -115.64810 27889 ft 438 kts 255°
2026-05-05 20:12 34.16533 -115.68338 27890 ft 439 kts 257°
2026-05-05 20:12 34.16081 -115.72030 27891 ft 439 kts 263°
2026-05-05 20:12 34.15739 -115.75650 27892 ft 439 kts 263°
2026-05-05 20:12 34.15391 -115.79314 27905 ft 439 kts 263°
2026-05-05 20:13 34.15041 -115.82981 27917 ft 440 kts 263°
2026-05-05 20:13 34.14688 -115.86647 27924 ft 440 kts 263°
2026-05-05 20:13 34.14331 -115.90318 27936 ft 440 kts 263°
2026-05-05 20:13 34.13972 -115.93988 27947 ft 441 kts 263°
2026-05-05 20:14 34.13612 -115.97663 27955 ft 441 kts 263°
2026-05-05 20:14 34.13248 -116.01344 27961 ft 441 kts 263°
2026-05-05 20:14 34.12884 -116.05024 27971 ft 442 kts 263°
2026-05-05 20:14 34.12520 -116.08709 27971 ft 442 kts 263°
2026-05-05 20:15 34.12159 -116.12394 27977 ft 443 kts 263°
2026-05-05 20:15 34.11798 -116.16087 27975 ft 443 kts 263°
2026-05-05 20:15 34.11435 -116.19783 27974 ft 444 kts 263°
2026-05-05 20:15 34.11068 -116.23480 27972 ft 444 kts 263°
2026-05-05 20:16 34.10698 -116.27177 27966 ft 444 kts 263°
2026-05-05 20:16 34.10327 -116.30882 27960 ft 445 kts 263°
2026-05-05 20:16 34.09950 -116.34537 27956 ft 445 kts 263°
2026-05-05 20:16 34.09556 -116.38238 27946 ft 445 kts 262°
2026-05-05 20:17 34.09156 -116.41940 27926 ft 445 kts 262°
2026-05-05 20:17 34.08751 -116.45648 27930 ft 446 kts 262°
2026-05-05 20:17 34.08347 -116.49354 27934 ft 446 kts 262°
2026-05-05 20:17 34.07942 -116.53063 27929 ft 445 kts 262°
2026-05-05 20:18 34.07544 -116.56724 27659 ft 434 kts 263°
2026-05-05 20:18 34.07163 -116.60281 27394 ft 422 kts 263°
2026-05-05 20:18 34.06821 -116.63735 27145 ft 411 kts 264°
2026-05-05 20:18 34.06509 -116.67133 26885 ft 403 kts 264°
2026-05-05 20:19 34.06214 -116.70474 26614 ft 399 kts 264°
2026-05-05 20:19 34.05922 -116.73798 26361 ft 397 kts 264°
2026-05-05 20:19 34.05625 -116.77104 25898 ft 397 kts 264°
2026-05-05 20:19 34.05318 -116.80434 25219 ft 399 kts 264°
2026-05-05 20:20 34.05006 -116.83756 24613 ft 398 kts 264°
2026-05-05 20:20 34.04694 -116.87058 24072 ft 396 kts 265°
2026-05-05 20:20 34.04367 -116.90350 23610 ft 392 kts 264°
2026-05-05 20:20 34.03991 -116.93550 23033 ft 390 kts 263°
2026-05-05 20:21 34.03566 -116.96776 22458 ft 387 kts 262°
2026-05-05 20:21 34.03127 -116.99963 21908 ft 384 kts 262°
2026-05-05 20:21 34.02688 -117.03126 21353 ft 381 kts 262°
2026-05-05 20:21 34.02271 -117.06266 20838 ft 378 kts 263°
2026-05-05 20:22 34.01889 -117.09389 20371 ft 375 kts 263°
2026-05-05 20:22 34.01528 -117.12489 19931 ft 372 kts 263°
2026-05-05 20:22 34.01176 -117.15572 19475 ft 370 kts 263°
2026-05-05 20:22 34.00822 -117.18632 19021 ft 368 kts 263°
2026-05-05 20:23 34.00468 -117.21668 18580 ft 365 kts 263°
2026-05-05 20:23 34.00111 -117.24687 18085 ft 363 kts 263°
2026-05-05 20:23 33.99754 -117.27681 17595 ft 360 kts 263°
2026-05-05 20:23 33.99394 -117.30656 17113 ft 357 kts 263°
2026-05-05 20:24 33.99040 -117.33600 16636 ft 354 kts 263°
2026-05-05 20:24 33.98693 -117.36527 16176 ft 352 kts 263°
2026-05-05 20:24 33.98352 -117.39422 15907 ft 344 kts 263°
2026-05-05 20:24 33.98021 -117.42247 15595 ft 338 kts 263°
2026-05-05 20:25 33.97695 -117.45027 15161 ft 332 kts 263°
2026-05-05 20:25 33.97414 -117.47769 14395 ft 327 kts 269°
2026-05-05 20:25 33.97546 -117.50483 13717 ft 326 kts 281°
2026-05-05 20:25 33.98031 -117.53135 13268 ft 324 kts 283°
2026-05-05 20:26 33.98507 -117.55776 12912 ft 321 kts 283°
2026-05-05 20:26 33.98966 -117.58399 12529 ft 320 kts 282°
2026-05-05 20:26 33.99420 -117.61014 12153 ft 318 kts 283°
2026-05-05 20:26 33.99868 -117.63604 11666 ft 314 kts 283°
2026-05-05 20:27 34.00315 -117.66165 11006 ft 312 kts 283°
2026-05-05 20:27 34.00575 -117.68748 10376 ft 311 kts 271°
2026-05-05 20:27 34.00377 -117.71318 10199 ft 303 kts 265°
2026-05-05 20:27 34.00128 -117.73795 10040 ft 293 kts 266°
2026-05-05 20:28 33.99897 -117.76214 9749 ft 289 kts 266°
2026-05-05 20:28 33.99668 -117.78608 9392 ft 286 kts 265°
2026-05-05 20:28 33.99438 -117.80981 9027 ft 285 kts 265°
2026-05-05 20:28 33.99208 -117.83347 8661 ft 283 kts 265°
2026-05-05 20:29 33.98980 -117.85695 8305 ft 281 kts 265°
2026-05-05 20:29 33.98758 -117.87995 7962 ft 279 kts 265°
2026-05-05 20:29 33.98537 -117.90306 7596 ft 277 kts 265°
2026-05-05 20:29 33.98316 -117.92607 7240 ft 275 kts 265°
2026-05-05 20:30 33.98094 -117.94884 6907 ft 273 kts 264°
2026-05-05 20:30 33.97871 -117.97144 6566 ft 271 kts 264°
2026-05-05 20:30 33.97648 -117.99387 6213 ft 268 kts 264°
2026-05-05 20:30 33.97419 -118.01606 5869 ft 266 kts 263°
2026-05-05 20:31 33.97198 -118.03782 5686 ft 257 kts 264°
2026-05-05 20:31 33.96996 -118.05817 5413 ft 254 kts 264°
2026-05-05 20:31 33.96787 -118.07930 5084 ft 253 kts 263°
2026-05-05 20:31 33.96582 -118.09996 4765 ft 243 kts 263°
2026-05-05 20:32 33.96385 -118.11971 4434 ft 234 kts 263°
2026-05-05 20:32 33.96195 -118.13884 4123 ft 225 kts 263°
2026-05-05 20:32 33.96012 -118.15711 3837 ft 215 kts 262°
2026-05-05 20:32 33.95839 -118.17447 3585 ft 202 kts 262°
2026-05-05 20:33 33.95675 -118.19085 3295 ft 192 kts 261°
2026-05-05 20:33 33.95519 -118.20641 3044 ft 183 kts 261°
2026-05-05 20:33 33.95369 -118.22127 2806 ft 174 kts 262°
2026-05-05 20:33 33.95227 -118.23546 2580 ft 167 kts 261°
2026-05-05 20:34 33.95089 -118.24911 2368 ft 162 kts 260°
2026-05-05 20:34 33.94946 -118.26318 2140 ft 173 kts 261°
2026-05-05 20:34 33.94801 -118.27764 1898 ft 174 kts 261°
2026-05-05 20:34 33.94657 -118.29187 1671 ft 165 kts 261°
2026-05-05 20:35 33.94525 -118.30499 1456 ft 152 kts 261°
2026-05-05 20:35 33.94404 -118.31702 1247 ft 140 kts 261°
2026-05-05 20:35 33.94285 -118.32865 1054 ft 139 kts 262°
2026-05-05 20:35 33.94172 -118.34001 851 ft 138 kts 261°
2026-05-05 20:36 33.94054 -118.35138 679 ft 137 kts 262°
2026-05-05 20:36 33.93935 -118.36282 508 ft 141 kts 263°
2026-05-05 20:36 33.93820 -118.37429 305 ft 134 kts 264°
2026-05-05 20:36 33.93708 -118.38537 138 ft 133 kts 262°
2026-05-05 20:37 33.93603 -118.39562 110 ft 106 kts 263°
2026-05-05 20:37 33.93556 -118.40040 113 ft 66 kts 263°
2026-05-05 20:37 33.93547 -118.40482 112 ft 29 kts 283°
2026-05-05 20:37 33.93595 -118.40653 106 ft 16 kts 286°
2026-05-05 20:38 33.93595 -118.40783 106 ft 10 kts 273°
2026-05-05 20:38 33.93602 -118.40833 106 ft 9 kts 285°
2026-05-05 20:38 33.93636 -118.40887 107 ft 7 kts 330°
2026-05-05 20:38 33.93687 -118.40899 107 ft 8 kts 355°
2026-05-05 20:39 33.93747 -118.40907 105 ft 10 kts 352°
2026-05-05 20:39 33.93834 -118.40920 99 ft 10 kts 353°
2026-05-05 20:39 33.93861 -118.40988 100 ft 12 kts 263°
2026-05-05 20:39 33.93850 -118.41094 97 ft 13 kts 263°
2026-05-05 20:40 33.93840 -118.41200 97 ft 13 kts 265°
2026-05-05 20:40 33.93893 -118.41264 97 ft 13 kts 351°
2026-05-05 20:40 33.93981 -118.41279 95 ft 13 kts 352°
2026-05-05 20:40 33.94068 -118.41292 97 ft 11 kts 353°
2026-05-05 20:41 33.94096 -118.41337 95 ft 7 kts 290°
2026-05-05 20:41 33.94113 -118.41389 97 ft 3 kts 291°
2026-05-05 20:41 33.94116 -118.41399 95 ft 3 kts 292°
2026-05-05 20:41 33.94118 -118.41406 95 ft 0 kts 291°